This is the latest recevied weather packets stored in our database for station/object KM4LTG. If no packets are shown the sender has not sent any weather packets the latest 10 day(s).
| Time | Temp. | Humidity | Pressure | Rain* | Wind** | Luminosity | Snow |
|---|---|---|---|---|---|---|---|
| 1777741845 | 27.78° C | 80% | 1012.7 hPa | 0 mm | - | - | - |
| 1777741555 | 27.78° C | 79% | 1012.8 hPa | 0 mm | - | - | - |
| 1777741269 | 27.78° C | 79% | 1012.8 hPa | 0 mm | - | - | - |
| 1777741014 | 27.78° C | 79% | 1012.9 hPa | 0 mm | - | - | - |
| 1777740765 | 27.78° C | 79% | 1012.9 hPa | 0 mm | - | - | - |
| 1777740475 | 27.78° C | 78% | 1013 hPa | 0 mm | - | - | - |
| 1777740180 | 27.78° C | 77% | 1013 hPa | 0 mm | - | - | - |
| 1777739894 | 27.78° C | 77% | 1012.9 hPa | 0 mm | - | - | - |
| 1777739605 | 28.33° C | 76% | 1012.8 hPa | 0 mm | - | - | - |
| 1777739338 | 28.33° C | 76% | 1012.5 hPa | 0 mm | - | - | - |
| 1777739090 | 28.33° C | 76% | 1012.5 hPa | 0 mm | - | - | - |
| 1777738794 | 28.89° C | 75% | 1012.3 hPa | 0 mm | - | - | - |
| 1777738505 | 28.89° C | 75% | 1012.4 hPa | 0 mm | - | - | - |
| 1777738220 | 28.89° C | 75% | 1012.4 hPa | 0 mm | - | - | - |
| 1777737940 | 28.89° C | 74% | 1012.5 hPa | 0 mm | - | - | - |
| 1777737650 | 29.44° C | 74% | 1012.6 hPa | 0 mm | - | - | - |
| 1777737350 | 28.89° C | 74% | 1012.4 hPa | 0 mm | - | - | - |
| 1777737105 | 28.89° C | 75% | 1012.8 hPa | 0 mm | - | - | - |
| 1777736830 | 28.33° C | 76% | 1012.9 hPa | 0 mm | - | - | - |
| 1777736547 | 28.33° C | 77% | 1012.9 hPa | 0 mm | - | - | - |
| 1777736270 | 27.78° C | 77% | 1012.8 hPa | 0 mm | - | - | - |
| 1777735980 | 27.78° C | 77% | 1012.7 hPa | 0 mm | - | - | - |
| 1777735730 | 27.78° C | 76% | 1013 hPa | 0 mm | - | - | - |
| 1777735460 | 27.78° C | 76% | 1012.8 hPa | 0 mm | - | - | - |
| 1777735160 | 27.78° C | 76% | 1013 hPa | 0 mm | - | - | - |
* Rain latest hour (hover to see other rain measurements)
** Current wind speed in m/s (hover to see current wind gust speed)